Tracking 19717 objects as of 24-Jun-2019
HD Live streaming from Space Station
objects crossing your sky now

THOR BURNER 2 R/B

Track THOR BURNER 2 R/B now!
10-day predictions


NORAD ID: 4954
Int'l Code: 1971-012B
Perigee: 745.6 km
Apogee: 797.4 km
Inclination: 98.6 °
Period: 100.1 minutes
Semi major axis: 7142 km
RCS: 1.7004 m2 (large)
Launch date: February 17, 1971
Source: United States (US)
Launch site: AIR FORCE WESTERN TEST RANGE (AFWTR)

Note: This is a ROCKET BODY
aabbcc
Your satellite tracking list
Your tracking list is empty




NASA's NSSDC Master Catalog

Two Line Element Set (TLE):
1  4954U 71012B   19175.10858253 -.00000004  00000-0  13482-4 0  9995
2  4954  98.6392  19.6040 0036241 296.3394  63.4073 14.38237312529613
Source of the keplerian elements: AFSPC